Location: Camp Crooked Creek
(37.9149°N, 85.6607°W)
Time: 19:35:59
(UTC-04:00)

Amateur Radio Satellites - All Passes

Search period start: 22 August 2014 19:05
Search period end: 23 August 2014 19:05
Location: Camp Crooked Creek, 37.9149°N, 85.6607°W

Satellite Date Start Highest point End Downlink Frequencies (MHz)
Time Altitude Azimuth
Hamsat 22 Aug 19:22:26 19:26:29 44° 261° (W) 19:30:38 145.90 MHz
PANSAT 22 Aug 19:23:52 19:26:38 19° 185° (S) 19:29:24 not established
PCSat 22 Aug 19:25:59 19:31:12 51° 112° (ESE) 19:36:26 145.825 MHz
STRAND 1 22 Aug 19:27:44 19:31:05 18° 93° (E) 19:34:26 ?
OPAL 22 Aug 19:37:42 19:41:04 18° 299° (WNW) 19:44:27 ?
JAS-2 22 Aug 19:43:44 19:50:10 44° 260° (W) 19:55:56 435.800 - 435.900 CW/SSB, 435.910 FM
HO-68 22 Aug 20:05:08 20:08:32 14° 54° (NE) 20:11:56 435.675 MHz FM
SO-67 22 Aug 20:07:35 20:11:03 87° 78° (ENE) 20:14:32 435.3500 MHz FM
ISS 22 Aug 20:20:12 20:22:47 20° 27° (NNE) 20:25:21 145.800 FM
Sapphire 22 Aug 20:39:01 20:44:06 41° 304° (WNW) 20:49:13 437.095 MHz 1200 baud AX-25 AFSK
RS-15 22 Aug 20:49:32 20:59:44 44° 251° (WSW) 21:10:21 29.354 - 29.394 USB, Beacon 29.352 USB
PANSAT 22 Aug 21:05:03 21:06:09 11° 197° (SSW) 21:07:16 not established
STRAND 1 22 Aug 21:05:37 21:10:31 49° 288° (WNW) 21:15:24 ?
PCSat 22 Aug 21:10:41 21:14:54 23° 310° (NW) 21:19:08 145.825 MHz
HO-68 22 Aug 21:47:57 21:55:05 78° 72° (ENE) 22:02:15 435.675 MHz FM
ISS 22 Aug 21:56:27 21:59:42 52° 223° (SW) 22:02:57 145.800 FM
Oscar 10/S400 22 Aug 21:56:29 22:17:34 65° 167° (SSE) 07:05:21 145.825 - 145.975 CW/USB, Beacon 145.810 USB
UKube-1 22 Aug 22:04:17 22:08:32 56° 74° (ENE) 22:12:48 145.840 MHz, 145.915 MHz
Oscar 11 22 Aug 22:19:57 22:24:05 46° 73° (ENE) 22:28:15 145.825 FM, Beacon 2401.500 USB
FUNcube-1 22 Aug 22:22:45 22:25:32 18° 67° (ENE) 22:28:19 145.950 - 145.970 MHz USB
AO-40 22 Aug 23:15:00 02:26:08 38° 192° (SSW) 07:49:50 Beacon 2401.320
HO-68 22 Aug 23:39:04 23:43:26 17° 268° (W) 23:47:50 435.675 MHz FM
UKube-1 22 Aug 23:43:37 23:45:03 11° 268° (W) 23:46:30 145.840 MHz, 145.915 MHz
FUNcube-1 22 Aug 23:57:54 00:01:40 34° 263° (W) 00:05:28 145.950 - 145.970 MHz USB
Oscar 11 22 Aug 23:58:21 00:00:30 14° 268° (W) 00:02:40 145.825 FM, Beacon 2401.500 USB
MaSat-1 23 Aug 00:31:47 00:34:21 14° 48° (NE) 00:36:47 437.345 MHz
KITSAT 1 23 Aug 00:37:25 00:43:00 21° 103° (ESE) 00:48:34 435.175 FM
Saudisat 1A 23 Aug 01:37:31 01:41:54 72° 119° (ESE) 01:46:19 436.775 MHz
Oscar 16 23 Aug 01:54:49 01:56:13 11° 90° (E) 01:57:36 437.025 USB, Beacon 2401.1428
MaSat-1 23 Aug 02:07:21 02:12:05 67° 249° (WSW) 02:16:11 437.345 MHz
KITSAT 1 23 Aug 02:29:24 02:37:30 77° 300° (WNW) 02:45:38 435.175 FM
AO-Echo 23 Aug 02:55:44 02:59:06 19° 94° (E) 03:02:27 ?
Oscar 19 23 Aug 02:57:39 03:02:41 48° 100° (E) 03:07:41 437.125 CW, 437.150 USB
ITAMSAT 1 23 Aug 03:10:46 03:15:08 27° 96° (E) 03:19:29 435.822 SSB
Gurwin Techsat 1B 23 Aug 03:18:02 03:20:38 14° 91° (E) 03:23:13 435.225 FM
Saudisat 1A 23 Aug 03:19:37 03:21:58 14° 316° (NW) 03:24:20 436.775 MHz
Uribyol 2 23 Aug 03:22:40 03:27:29 38° 98° (E) 03:32:17 436.500 FM
Oscar 16 23 Aug 03:30:53 03:36:05 77° 285° (WNW) 03:41:16 437.025 USB, Beacon 2401.1428
AO-27 23 Aug 03:36:58 03:42:01 50° 100° (E) 03:47:02 436.795 MHz FM
Sapphire 23 Aug 03:46:17 03:49:44 17° 46° (NE) 03:53:10 437.095 MHz 1200 baud AX-25 AFSK
JAS-1B 23 Aug 04:03:36 04:10:52 68° 101° (E) 04:16:58 435.800 - 435.900 CW/SSB
TMSAT-1 23 Aug 04:13:28 04:18:18 35° 97° (E) 04:23:06 436.925 FM
PCSat 23 Aug 04:15:53 04:20:37 30° 53° (NE) 04:25:19 145.825 MHz
AO-7 23 Aug 04:20:26 04:22:59 12° 89° (E) 04:25:31 29.400 - 29.500 MHz
KITSAT 1 23 Aug 04:28:44 04:34:17 20° 322° (NW) 04:39:52 435.175 FM
AO-Echo 23 Aug 04:33:40 04:38:00 37° 289° (WNW) 04:42:18 ?
Oscar 19 23 Aug 04:37:59 04:41:38 20° 295° (WNW) 04:45:16 437.125 CW, 437.150 USB
ITAMSAT 1 23 Aug 04:50:02 04:54:36 33° 291° (WNW) 04:59:11 435.822 SSB
Gurwin Techsat 1B 23 Aug 04:55:46 05:01:02 66° 286° (WNW) 05:06:16 435.225 FM
Uribyol 2 23 Aug 05:02:38 05:06:43 24° 294° (WNW) 05:10:49 436.500 FM
OPAL 23 Aug 05:10:51 05:15:50 84° 73° (ENE) 05:20:56 ?
Uosat F 23 Aug 05:16:33 05:20:43 26° 96° (E) 05:24:51 435.120 FM
AO-27 23 Aug 05:17:35 05:21:06 19° 296° (WNW) 05:24:38 436.795 MHz FM
Sapphire 23 Aug 05:28:20 05:33:46 76° 245° (WSW) 05:39:09 437.095 MHz 1200 baud AX-25 AFSK
SO-50 23 Aug 05:37:36 05:40:24 17° 109° (ESE) 05:43:14 436.795 FM
TMSAT-1 23 Aug 05:53:40 05:58:02 27° 293° (WNW) 06:02:23 436.925 FM
JAS-1B 23 Aug 05:55:33 06:00:32 20° 304° (WNW) 06:05:01 435.800 - 435.900 CW/SSB
PCSat 23 Aug 05:59:07 06:04:04 37° 250° (WSW) 06:08:59 145.825 MHz
AO-7 23 Aug 06:08:40 06:16:59 74° 106° (ESE) 06:25:14 29.400 - 29.500 MHz
STRAND 1 23 Aug 06:42:01 06:45:55 23° 66° (ENE) 06:49:48 ?
Uosat F 23 Aug 06:55:04 06:59:29 32° 291° (WNW) 07:03:53 435.120 FM
JAS-2 23 Aug 06:55:10 06:59:13 23° 95° (E) 07:03:22 435.800 - 435.900 CW/SSB, 435.910 FM
Hamsat 23 Aug 07:09:55 07:13:57 36° 97° (E) 07:17:56 145.90 MHz
SO-50 23 Aug 07:16:14 07:20:32 46° 305° (NW) 07:24:56 436.795 FM
AO-7 23 Aug 08:02:43 08:08:58 25° 304° (NW) 08:15:12 29.400 - 29.500 MHz
STRAND 1 23 Aug 08:20:03 08:24:49 40° 261° (W) 08:29:38 ?
UOSAT-12 23 Aug 08:22:15 08:26:47 64° 118° (ESE) 08:31:26 437.025 FM, 437.400 FM
KITSAT 1 23 Aug 08:32:04 08:34:18 11° 25° (NNE) 08:36:31 435.175 FM
JAS-2 23 Aug 08:39:43 08:44:26 37° 290° (WNW) 08:49:17 435.800 - 435.900 CW/SSB, 435.910 FM
Hamsat 23 Aug 08:46:36 08:49:37 19° 293° (WNW) 08:52:38 145.90 MHz
RS-15 23 Aug 08:59:06 09:08:56 38° 107° (ESE) 09:18:33 29.354 - 29.394 USB, Beacon 29.352 USB
SO-67 23 Aug 09:06:04 09:09:29 57° 284° (WNW) 09:12:52 435.3500 MHz FM
HO-68 23 Aug 09:20:01 09:23:47 15° 91° (E) 09:27:32 435.675 MHz FM
UKube-1 23 Aug 09:57:09 09:58:03 11° 91° (E) 09:58:57 145.840 MHz, 145.915 MHz
UOSAT-12 23 Aug 10:04:23 10:07:23 17° 316° (NW) 10:10:25 437.025 FM, 437.400 FM
Saudisat 1A 23 Aug 10:06:07 10:10:10 34° 53° (NE) 10:14:11 436.775 MHz
KITSAT 1 23 Aug 10:24:52 10:32:22 40° 51° (NE) 10:39:49 435.175 FM
HO-68 23 Aug 11:05:03 11:12:14 86° 287° (WNW) 11:19:24 435.675 MHz FM
RS-15 23 Aug 11:09:53 11:20:45 58° 307° (NW) 11:31:31 29.354 - 29.394 USB, Beacon 29.352 USB
UKube-1 23 Aug 11:30:20 11:34:36 59° 286° (WNW) 11:38:52 145.840 MHz, 145.915 MHz
Oscar 11 23 Aug 11:45:11 11:49:32 66° 285° (WNW) 11:53:51 145.825 FM, Beacon 2401.500 USB
Saudisat 1A 23 Aug 11:46:06 11:49:32 22° 249° (WSW) 11:52:57 436.775 MHz
FUNcube-1 23 Aug 11:47:58 11:52:18 49° 100° (E) 11:56:42 145.950 - 145.970 MHz USB
KITSAT 1 23 Aug 12:20:15 12:27:50 46° 250° (WSW) 12:35:23 435.175 FM
HO-68 23 Aug 12:54:57 12:58:55 16° 305° (NW) 13:02:53 435.675 MHz FM
JAS-1B 23 Aug 12:59:20 13:03:09 13° 51° (NE) 13:06:51 435.800 - 435.900 CW/SSB
ISS 23 Aug 13:03:02 13:04:27 12° 128° (SE) 13:05:51 145.800 FM
Oscar 16 23 Aug 13:09:36 13:12:27 15° 63° (ENE) 13:15:19 437.025 USB, Beacon 2401.1428
FUNcube-1 23 Aug 13:25:46 13:28:17 15° 294° (WNW) 13:30:50 145.950 - 145.970 MHz USB
RS-15 23 Aug 13:28:41 13:36:09 20° 336° (NNW) 13:43:40 29.354 - 29.394 USB, Beacon 29.352 USB
AO-Echo 23 Aug 14:06:45 14:10:49 24° 68° (ENE) 14:14:49 ?
SO-50 23 Aug 14:10:19 14:12:44 14° 42° (NE) 14:15:09 436.795 FM
Oscar 19 23 Aug 14:12:45 14:17:47 58° 73° (ENE) 14:22:52 437.125 CW, 437.150 USB
ITAMSAT 1 23 Aug 14:27:05 14:31:45 35° 69° (ENE) 14:36:25 435.822 SSB
Gurwin Techsat 1B 23 Aug 14:37:09 14:40:52 20° 65° (ENE) 14:44:36 435.225 FM
ISS 23 Aug 14:37:30 14:40:47 60° 323° (NW) 14:44:05 145.800 FM
Uribyol 2 23 Aug 14:38:51 14:43:47 48° 72° (ENE) 14:48:44 436.500 FM
JAS-1B 23 Aug 14:42:14 14:51:49 57° 69° (ENE) 15:00:52 435.800 - 435.900 CW/SSB
Oscar 16 23 Aug 14:46:09 14:51:14 64° 259° (WSW) 14:56:22 437.025 USB, Beacon 2401.1428
AO-27 23 Aug 14:53:22 14:58:29 65° 74° (ENE) 15:03:38 436.795 MHz FM
AO-7 23 Aug 15:16:57 15:22:05 18° 52° (NE) 15:27:12 29.400 - 29.500 MHz
TMSAT-1 23 Aug 15:32:27 15:37:29 47° 71° (ENE) 15:42:32 436.925 FM
AO-Echo 23 Aug 15:44:36 15:49:23 37° 262° (W) 15:54:03 ?
RS-15 23 Aug 15:48:14 15:54:44 17° 14° (NNE) 16:01:18 29.354 - 29.394 USB, Beacon 29.352 USB
SO-50 23 Aug 15:49:07 15:53:56 88° 240° (WSW) 15:58:47 436.795 FM
MaSat-1 23 Aug 15:53:21 15:57:59 75° 112° (ESE) 16:03:07 437.345 MHz
Oscar 19 23 Aug 15:54:37 15:57:29 15° 268° (W) 16:00:21 437.125 CW, 437.150 USB
ITAMSAT 1 23 Aug 16:07:01 16:11:16 25° 264° (W) 16:15:31 435.822 SSB
Gurwin Techsat 1B 23 Aug 16:15:18 16:20:26 50° 260° (W) 16:25:35 435.225 FM
ISS 23 Aug 16:16:27 16:18:05 13° 341° (NNW) 16:19:42 145.800 FM
Uribyol 2 23 Aug 16:20:01 16:23:30 18° 267° (W) 16:26:59 436.500 FM
Uosat F 23 Aug 16:28:11 16:32:32 31° 68° (ENE) 16:36:55 435.120 FM
JAS-1B 23 Aug 16:33:29 16:42:21 37° 265° (W) 16:50:58 435.800 - 435.900 CW/SSB
AO-27 23 Aug 16:35:56 16:38:25 13° 269° (W) 16:40:54 436.795 MHz FM
UOSAT-12 23 Aug 16:53:44 16:58:04 35° 52° (NE) 17:02:20 437.025 FM, 437.400 FM
AO-7 23 Aug 17:05:18 17:13:39 83° 71° (ENE) 17:22:01 29.400 - 29.500 MHz
TMSAT-1 23 Aug 17:13:50 17:17:36 20° 267° (W) 17:21:24 436.925 FM
PANSAT 23 Aug 17:19:20 17:21:59 18° 173° (S) 17:24:39 not established
OPAL 23 Aug 17:23:01 17:27:20 26° 97° (E) 17:31:37 ?
MaSat-1 23 Aug 17:32:55 17:35:45 15° 311° (NW) 17:38:41 437.345 MHz
RS-15 23 Aug 18:00:54 18:11:16 43° 46° (NE) 18:21:55 29.354 - 29.394 USB, Beacon 29.352 USB
Hamsat 23 Aug 18:02:10 18:05:24 21° 68° (ENE) 18:08:40 145.90 MHz
Uosat F 23 Aug 18:07:01 18:11:16 28° 264° (W) 18:15:33 435.120 FM
Sapphire 23 Aug 18:27:09 18:30:40 18° 105° (ESE) 18:34:13 437.095 MHz 1200 baud AX-25 AFSK
UOSAT-12 23 Aug 18:34:12 18:38:03 25° 249° (WSW) 18:41:51 437.025 FM, 437.400 FM
JAS-2 23 Aug 18:48:30 18:55:11 71° 74° (ENE) 19:01:05 435.800 - 435.900 CW/SSB, 435.910 FM
PCSat 23 Aug 18:55:51 19:00:44 36° 110° (ESE) 19:05:40 145.825 MHz
PANSAT 23 Aug 18:58:50 19:01:35 19° 185° (S) 19:04:20 not established
